Orbital Elements at Epoch 2459000.5 (2020-May-31.0) TDB
Reference: JPL 18 (heliocentric ecliptic J2000)
Element | Value | Uncertainty (1-sigma) | Units |
e | .1970452614481766 | 1.714e-07 | |
a | 3.026740335081021 | 7.4679e-08 | au |
q | 2.43033549441924 | 5.7216e-07 | au |
i | 12.75286805425149 | 7.4944e-06 | deg |
node | 295.9742590904665 | 3.8114e-05 | deg |
peri | 98.15489225278603 | 7.6594e-05 | deg |
M | 307.4511840215499 | 6.0251e-05 | deg |
tp | 2459281.251191184931 (2021-Mar-07.75119118) | 0.00033037 | TDB |
period | 1923.362628532365 5.27 | 7.1183e-05 1.949e-07 | d yr |
n | .1871721924194298 | 6.9272e-09 | deg/d |
Q | 3.623145175742802 | 8.9394e-08 | au |
|
| | Orbit Determination Parameters
Additional Information
|